Time,TemperatureF,DewpointF,PressureIn,WindDirection,WindDirectionDegrees,WindSpeedMPH,WindSpeedGustMPH,Humidity,HourlyPrecipIn,Conditions,Clouds,dailyrainin,SoftwareType,DateUTC
2013-04-30 06:23:00,71.0,68.0,29.98,SW,215,0.0,0.0,90,0.00,,,0.00,,2013-04-30 16:23:00,
2013-04-30 06:33:00,71.0,68.0,29.98,SW,217,0.0,1.0,90,0.00,,,0.00,,2013-04-30 16:33:00,
2013-04-30 06:42:00,71.0,68.0,29.98,SW,217,0.0,1.0,90,0.00,,,0.00,,2013-04-30 16:42:00,
2013-04-30 06:52:00,71.0,68.0,29.98,SW,217,0.0,0.0,90,0.00,,,0.00,,2013-04-30 16:52:00,
2013-04-30 07:02:00,72.0,69.0,29.99,WNW,299,2.0,3.0,90,0.01,,,0.01,,2013-04-30 17:02:00,
2013-04-30 07:11:00,72.0,69.0,29.99,WNW,299,2.0,3.0,90,0.01,,,0.01,,2013-04-30 17:11:00,
2013-04-30 07:22:00,73.0,70.0,29.99,WNW,300,0.0,3.0,89,0.01,,,0.01,,2013-04-30 17:22:00,
2013-04-30 07:32:00,74.0,70.0,30.00,NNE,29,0.0,0.0,88,0.01,,,0.01,,2013-04-30 17:32:00,
2013-04-30 07:42:00,74.0,70.0,30.00,NNE,29,0.0,0.0,88,0.01,,,0.01,,2013-04-30 17:42:00,
2013-04-30 07:52:00,75.0,70.0,30.00,NNE,30,0.0,3.0,84,0.01,,,0.01,,2013-04-30 17:52:00,
2013-04-30 08:01:00,75.0,69.0,30.00,NNE,31,0.0,3.0,83,0.00,,,0.01,,2013-04-30 18:01:00,
2013-04-30 08:11:00,75.0,69.0,30.00,SW,234,3.0,6.0,82,0.00,,,0.01,,2013-04-30 18:11:00,
2013-04-30 08:22:00,75.0,69.0,30.00,SW,234,3.0,6.0,82,0.00,,,0.01,,2013-04-30 18:22:00,
2013-04-30 08:32:00,75.0,68.0,30.00,South,186,1.0,4.0,78,0.00,,,0.01,,2013-04-30 18:32:00,
2013-04-30 08:41:00,76.0,69.0,30.01,South,171,0.0,1.0,79,0.00,,,0.01,,2013-04-30 18:41:00,
2013-04-30 08:52:00,76.0,69.0,30.01,South,171,0.0,1.0,79,0.00,,,0.01,,2013-04-30 18:52:00,
2013-04-30 09:01:00,77.0,69.0,30.02,SSE,155,3.0,6.0,76,0.00,,,0.01,,2013-04-30 19:01:00,
2013-04-30 09:11:00,76.0,68.0,30.01,SE,126,4.0,7.0,76,0.00,,,0.01,,2013-04-30 19:11:00,
2013-04-30 09:21:00,76.0,68.0,30.01,SE,126,4.0,7.0,76,0.00,,,0.01,,2013-04-30 19:21:00,
2013-04-30 09:31:00,77.0,67.0,30.01,SE,137,5.0,8.0,72,0.00,,,0.01,,2013-04-30 19:31:00,
2013-04-30 09:41:00,77.0,67.0,30.01,SE,137,5.0,8.0,72,0.00,,,0.01,,2013-04-30 19:41:00,
2013-04-30 09:52:00,77.0,67.0,30.02,SE,137,5.0,8.0,72,0.00,,,0.01,,2013-04-30 19:52:00,
2013-04-30 10:01:00,78.0,69.0,30.02,SE,133,2.0,8.0,73,0.00,,,0.01,,2013-04-30 20:01:00,
2013-04-30 10:11:00,78.0,69.0,30.02,SE,133,2.0,8.0,73,0.00,,,0.01,,2013-04-30 20:11:00,
2013-04-30 10:21:00,78.0,69.0,30.02,SSE,163,3.0,10.0,75,0.00,,,0.01,,2013-04-30 20:21:00,
2013-04-30 10:32:00,78.0,69.0,30.02,SSW,205,4.0,10.0,74,0.00,,,0.01,,2013-04-30 20:32:00,
2013-04-30 10:42:00,78.0,69.0,30.02,SSW,205,4.0,10.0,74,0.00,,,0.01,,2013-04-30 20:42:00,
2013-04-30 10:52:00,79.0,69.0,30.02,East,93,6.0,11.0,72,0.00,,,0.01,,2013-04-30 20:52:00,
2013-04-30 11:01:00,79.0,68.0,30.03,East,96,4.0,11.0,70,0.00,,,0.01,,2013-04-30 21:01:00,
2013-04-30 11:11:00,79.0,70.0,30.02,ESE,111,6.0,16.0,74,0.00,,,0.01,,2013-04-30 21:11:00,
2013-04-30 11:21:00,79.0,70.0,30.02,ESE,111,6.0,16.0,74,0.00,,,0.01,,2013-04-30 21:21:00,
2013-04-30 11:32:00,79.0,70.0,30.02,SSW,201,5.0,13.0,74,0.00,,,0.01,,2013-04-30 21:32:00,
2013-04-30 11:42:00,79.0,70.0,30.02,SSW,201,5.0,13.0,74,0.00,,,0.01,,2013-04-30 21:42:00,
2013-04-30 11:53:00,79.0,70.0,30.02,SE,140,5.0,11.0,74,0.00,,,0.01,,2013-04-30 21:53:00,
2013-04-30 12:02:00,78.0,69.0,30.02,SSE,147,4.0,13.0,74,0.00,,,0.01,,2013-04-30 22:02:00,
2013-04-30 12:12:00,78.0,69.0,30.02,SSE,147,4.0,13.0,74,0.00,,,0.01,,2013-04-30 22:12:00,
2013-04-30 12:22:00,79.0,70.0,30.01,SE,143,4.0,15.0,73,0.00,,,0.01,,2013-04-30 22:22:00,
2013-04-30 12:32:00,78.0,69.0,30.01,SE,139,7.0,14.0,75,0.00,,,0.01,,2013-04-30 22:32:00,
2013-04-30 12:41:00,78.0,69.0,30.01,SE,139,7.0,14.0,75,0.00,,,0.01,,2013-04-30 22:41:00,
2013-04-30 12:53:00,78.0,70.0,30.01,SE,134,7.0,13.0,77,0.00,,,0.01,,2013-04-30 22:53:00,
2013-04-30 13:02:00,79.0,70.0,30.00,South,172,5.0,11.0,75,0.00,,,0.01,,2013-04-30 23:02:00,
2013-04-30 13:11:00,79.0,70.0,30.00,South,172,5.0,11.0,75,0.00,,,0.01,,2013-04-30 23:11:00,
2013-04-30 13:21:00,79.0,71.0,30.00,SSE,155,7.0,13.0,76,0.00,,,0.01,,2013-04-30 23:21:00,
2013-04-30 13:32:00,79.0,70.0,30.00,SE,146,5.0,14.0,74,0.00,,,0.01,,2013-04-30 23:32:00,
2013-04-30 13:42:00,79.0,70.0,30.00,SE,146,5.0,14.0,74,0.00,,,0.01,,2013-04-30 23:42:00,
2013-04-30 13:52:00,79.0,69.0,29.99,SE,127,6.0,13.0,72,0.00,,,0.01,,2013-04-30 23:52:00,
2013-04-30 14:01:00,79.0,70.0,29.99,ESE,121,5.0,15.0,73,0.00,,,0.01,,2013-05-01 00:01:00,
2013-04-30 14:11:00,79.0,70.0,29.99,ESE,121,5.0,15.0,73,0.00,,,0.01,,2013-05-01 00:11:00,
2013-04-30 14:21:00,79.0,68.0,29.99,SE,146,3.0,9.0,70,0.00,,,0.01,,2013-05-01 00:21:00,
2013-04-30 14:31:00,78.0,70.0,29.99,ESE,104,1.0,12.0,77,0.00,,,0.01,,2013-05-01 00:31:00,
2013-04-30 14:42:00,78.0,70.0,29.99,ESE,104,1.0,12.0,77,0.00,,,0.01,,2013-05-01 00:42:00,
2013-04-30 14:51:00,77.0,70.0,29.99,ESE,109,5.0,13.0,78,0.00,,,0.01,,2013-05-01 00:51:00,
2013-04-30 15:01:00,76.0,69.0,29.99,SE,138,2.0,13.0,79,0.00,,,0.01,,2013-05-01 01:01:00,
2013-04-30 15:11:00,76.0,69.0,29.99,SE,138,2.0,13.0,79,0.00,,,0.01,,2013-05-01 01:11:00,
2013-04-30 15:21:00,77.0,70.0,29.99,East,98,4.0,9.0,79,0.00,,,0.01,,2013-05-01 01:21:00,
2013-04-30 15:31:00,76.0,69.0,29.99,SE,145,4.0,7.0,78,0.00,,,0.01,,2013-05-01 01:31:00,
2013-04-30 15:41:00,76.0,69.0,29.99,SE,145,4.0,7.0,78,0.00,,,0.01,,2013-05-01 01:41:00,
2013-04-30 15:52:00,76.0,68.0,29.99,SSE,153,3.0,9.0,77,0.00,,,0.01,,2013-05-01 01:52:00,
2013-04-30 16:01:00,76.0,69.0,29.98,SE,137,5.0,11.0,80,0.00,,,0.01,,2013-05-01 02:01:00,
2013-04-30 16:11:00,76.0,69.0,29.98,SE,137,5.0,11.0,80,0.00,,,0.01,,2013-05-01 02:11:00,
2013-04-30 16:21:00,76.0,69.0,29.98,SE,124,5.0,8.0,80,0.00,,,0.01,,2013-05-01 02:21:00,
2013-04-30 16:32:00,76.0,69.0,29.98,SE,138,1.0,5.0,79,0.00,,,0.01,,2013-05-01 02:32:00,
2013-04-30 16:42:00,76.0,69.0,29.98,SE,138,1.0,5.0,79,0.00,,,0.01,,2013-05-01 02:42:00,
2013-04-30 16:52:00,76.0,68.0,29.98,SSE,157,1.0,6.0,76,0.00,,,0.01,,2013-05-01 02:52:00,
2013-04-30 17:01:00,76.0,68.0,29.98,SE,137,3.0,6.0,77,0.00,,,0.01,,2013-05-01 03:01:00,
2013-04-30 17:11:00,76.0,68.0,29.98,SE,137,3.0,6.0,77,0.00,,,0.01,,2013-05-01 03:11:00,
2013-04-30 17:21:00,76.0,69.0,29.98,SE,129,1.0,6.0,79,0.00,,,0.01,,2013-05-01 03:21:00,
2013-04-30 17:32:00,75.0,68.0,29.98,SE,128,0.0,3.0,79,0.00,,,0.01,,2013-05-01 03:32:00,
2013-04-30 17:42:00,75.0,68.0,29.98,SE,128,0.0,3.0,79,0.00,,,0.01,,2013-05-01 03:42:00,
2013-04-30 17:53:00,75.0,69.0,29.99,SE,128,0.0,0.0,81,0.00,,,0.01,,2013-05-01 03:53:00,
2013-04-30 18:02:00,76.0,70.0,29.99,SE,128,0.0,0.0,81,0.00,,,0.01,,2013-05-01 04:02:00,
2013-04-30 18:12:00,76.0,70.0,29.99,SE,128,0.0,0.0,81,0.00,,,0.01,,2013-05-01 04:12:00,
2013-04-30 18:22:00,76.0,70.0,29.99,SE,129,1.0,3.0,81,0.00,,,0.01,,2013-05-01 04:22:00,
2013-04-30 18:32:00,75.0,69.0,29.99,SW,217,0.0,5.0,81,0.00,,,0.01,,2013-05-01 04:32:00,
2013-04-30 18:42:00,75.0,69.0,29.99,SW,217,0.0,5.0,81,0.00,,,0.01,,2013-05-01 04:42:00,
2013-04-30 18:52:00,75.0,70.0,30.00,SW,225,0.0,2.0,84,0.00,,,0.01,,2013-05-01 04:52:00,
2013-04-30 19:02:00,74.0,69.0,30.00,SW,225,0.0,1.0,84,0.00,,,0.01,,2013-05-01 05:02:00,
2013-04-30 19:11:00,74.0,69.0,30.00,SW,225,0.0,1.0,84,0.00,,,0.01,,2013-05-01 05:11:00,
2013-04-30 19:21:00,74.0,69.0,30.00,SSE,164,0.0,0.0,85,0.00,,,0.01,,2013-05-01 05:21:00,
2013-04-30 19:32:00,74.0,69.0,30.01,SSE,165,0.0,1.0,85,0.00,,,0.01,,2013-05-01 05:32:00,
2013-04-30 19:41:00,74.0,69.0,30.01,SSE,153,1.0,5.0,85,0.00,,,0.01,,2013-05-01 05:41:00,
2013-04-30 19:52:00,74.0,69.0,30.01,SSE,153,1.0,5.0,85,0.00,,,0.01,,2013-05-01 05:52:00,
2013-04-30 20:01:00,74.0,70.0,30.02,SSE,153,0.0,2.0,86,0.00,,,0.01,,2013-05-01 06:01:00,
2013-04-30 20:11:00,74.0,70.0,30.02,SSE,153,0.0,2.0,86,0.00,,,0.01,,2013-05-01 06:11:00,
2013-04-30 20:21:00,74.0,70.0,30.02,SSE,153,2.0,3.0,86,0.00,,,0.01,,2013-05-01 06:21:00,
2013-04-30 20:32:00,74.0,70.0,30.03,SSE,153,1.0,3.0,87,0.00,,,0.01,,2013-05-01 06:32:00,
2013-04-30 20:42:00,74.0,70.0,30.03,SSE,153,1.0,3.0,87,0.00,,,0.01,,2013-05-01 06:42:00,
2013-04-30 20:52:00,73.0,69.0,30.04,SSE,153,0.0,1.0,86,0.00,,,0.01,,2013-05-01 06:52:00,
2013-04-30 21:01:00,73.0,68.0,30.03,SSE,153,0.0,0.0,85,0.00,,,0.01,,2013-05-01 07:01:00,
2013-04-30 21:11:00,73.0,68.0,30.03,SSE,153,0.0,0.0,85,0.00,,,0.01,,2013-05-01 07:11:00,
2013-04-30 21:21:00,73.0,68.0,30.04,SSE,153,0.0,0.0,84,0.00,,,0.01,,2013-05-01 07:21:00,
2013-04-30 21:32:00,73.0,68.0,30.04,SSE,153,0.0,0.0,84,0.00,,,0.01,,2013-05-01 07:32:00,
2013-04-30 21:41:00,73.0,68.0,30.04,SSE,153,0.0,0.0,84,0.00,,,0.01,,2013-05-01 07:41:00,
2013-04-30 21:52:00,73.0,68.0,30.05,SSE,153,0.0,0.0,84,0.00,,,0.01,,2013-05-01 07:52:00,
2013-04-30 22:01:00,73.0,68.0,30.05,SSE,153,0.0,0.0,84,0.00,,,0.01,,2013-05-01 08:01:00,
2013-04-30 22:11:00,73.0,68.0,30.05,SSE,153,0.0,0.0,84,0.00,,,0.01,,2013-05-01 08:11:00,
2013-04-30 22:21:00,73.0,68.0,30.05,SSE,153,0.0,0.0,84,0.00,,,0.01,,2013-05-01 08:21:00,
2013-04-30 22:31:00,73.0,68.0,30.05,SSE,153,0.0,0.0,84,0.00,,,0.01,,2013-05-01 08:31:00,